星链-30597 (STARLINK-30597 )

导读 | 豆包AI

STARLINK-30597是美国SpaceX公司星链(Starlink)星座的一颗卫星,于2023年10月18日发射入轨。星链星座通过在近地轨道部署大量卫星,旨在为全球提供高速低延迟宽带互联网服务,尤其覆盖传统基础设施匮乏的偏远欠发达区域。该卫星作为星链组网的组成单元,助力星座拓展全球服务覆盖范围,提升网络服务的容量与稳定性,推动全球互联网接入的普及。

基本信息
目录编号:
58078
目录名称:
STARLINK-30597
国际标识:
2023-160D
轨道中心:
EARTH
卫星名称:
星链-30597
卫星全名:
星链-30597 (STARLINK-30597 )
卫星状态:
在轨 (已飞行925 天)
发射日期:
2023-10-18 UTC
国别 :
美国 (US)
星等 :
--
轨道信息
数据来源 国际轨道数据
星历时间: 2026-04-30T10:44:15+0800
16小时前
查看轨道信息
半长轴: 6861.246km
偏心率: 0.0001659
轨道倾角: 42.999°
近地点辐角 295.641°
升交点赤经 147.187°
平近点角 64.427°
近地点: 481.97km
远地点: 484.248km
周期: 94.268分钟
每日圈数: 15.2756
详细信息
固有亮度:
5
最大亮度:
0.3
卫星平台:
Starlink v2.0 mini
覆盖范围:
全球
运营商:
太空探索技术公司
运营商所在国:
美国
制造商(研发单位):
太空探索技术公司
制造商所在国:
美国
使用方式:
暂无
卫星简介
星链(Starlink)计划是由太空探索技术公司(SpaceX)提出的一个巨型低轨卫星互联网星座项目,计划在2019年至2024年间在太空搭建由约1.2万颗卫星组成的“星链”网络,其中1584颗将部署在地球上空550千米处的近地轨道,并从2020年开始工作。该卫星仍在工作。
2D轨道图
3D轨道图
轨道高度分析图
轨道倾角分析图
轨道综合分析图
查看轨道综合分析图